Home > Time Zones > World Clock > Weather > Spain > Palma > Past weeks

Flag for Spain Weather past 2 weeks in Palma, Majorca, Spain

Now
70 °F

Scattered clouds.


Feels Like: 70 °F
Forecast: 58 / 72 °F
Wind: 23 mph from West

Location: Palma De Mallorca / Son San Juan


UV Index: 5 (Moderate)

Visibility: N/A


Pressure: 29.59 "Hg

Humidity: 60%

Dew point: 55 °F

Location of PalmaLocation

Historic Weather in Palma

°F

Palma temperature yesterday

Maximum temperature yesterday: 79 °F (at 1:30 PM)
Minimum temperature yesterday: 50 °F (at 6:00 AM)
Average temperature yesterday: 64 °F

Past Weeks' High & Low Weather Summary

 TemperatureHumidityPressure
High79 °F (Apr 19, 1:30 PM)100% (Apr 6, 4:00 AM)30.24 "Hg (Apr 6, 4:00 AM)
Low45 °F (Apr 18, 5:00 AM)21% (Apr 19, 2:00 PM)29.53 "Hg (Apr 20, 7:30 AM)
Average61 °F75%30.02 "Hg
* Reported Apr 5 12:00 Noon — Apr 20 12:30 PM, Palma, Weather by CustomWeather, © 2014

Note: Actual official high and low records may vary slightly from our data, if they occured in-between our weather recording intervals... More about our weather records

Advertising

Historic Weather Conditions — Data for Previous 24 hours

 ConditionsComfort  
Time TempWeatherWind HumidityBarometerVisibility
12:30 PM
Apr 20
68 °FScattered clouds.21 mph69%29.59 "HgN/A
12:00 PM70 °FScattered clouds.16 mph64%29.59 "HgN/A
11:30 AM70 °FScattered clouds.14 mph64%29.59 "HgN/A
11:00 AM68 °FScattered clouds.13 mph69%29.59 "HgN/A
10:30 AM68 °FPassing clouds.12 mph69%29.59 "HgN/A
10:00 AM64 °FPartly sunny.8 mph83%29.59 "HgN/A
9:30 AM64 °FPartly sunny.5 mph83%29.59 "Hg5 mi
9:00 AM63 °FFog.1 mph88%29.56 "Hg3 mi
8:30 AM63 °FFog.3 mph88%29.56 "Hg3 mi
8:00 AM61 °FFog.5 mph88%29.53 "Hg2 mi
7:30 AM61 °FPartly cloudy.3 mph88%29.53 "Hg5 mi
7:00 AM63 °FPassing clouds.5 mph83%29.56 "Hg4 mi
6:30 AM61 °FPassing clouds.2 mph88%29.56 "HgN/A
6:00 AM61 °FPassing clouds.5 mph83%29.56 "HgN/A
5:30 AM61 °FPartly cloudy.6 mph83%29.59 "HgN/A
5:00 AM61 °FPartly cloudy.8 mph83%29.59 "HgN/A
4:30 AM61 °FPartly cloudy.9 mph77%29.59 "HgN/A
4:00 AM61 °FPartly cloudy.10 mph77%29.59 "HgN/A
3:30 AM61 °FPartly cloudy.13 mph77%29.62 "HgN/A
3:00 AM61 °FPassing clouds.10 mph77%29.65 "HgN/A
2:30 AM61 °FOvercast.9 mph77%29.65 "HgN/A
2:00 AM61 °FOvercast.10 mph72%29.68 "HgN/A
1:30 AM61 °FPassing clouds.7 mph72%29.68 "HgN/A
1:00 AM61 °FPassing clouds.7 mph72%29.71 "HgN/A
12:30 AM61 °FPassing clouds.8 mph72%29.68 "HgN/A
12:00 AM61 °FPassing clouds.7 mph72%29.71 "HgN/A
11:30 PM
Apr 19
59 °FPassing clouds.7 mph77%29.71 "HgN/A
11:00 PM61 °FPassing clouds.8 mph72%29.71 "HgN/A
10:30 PM61 °FPassing clouds.7 mph72%29.71 "HgN/A
10:00 PM61 °FPassing clouds.7 mph68%29.71 "HgN/A
9:30 PM61 °FPassing clouds.6 mph68%29.71 "HgN/A
9:00 PM63 °FPassing clouds.8 mph64%29.71 "HgN/A
8:30 PM63 °FPassing clouds.7 mph68%29.68 "HgN/A
8:00 PM64 °FScattered clouds.7 mph64%29.71 "HgN/A
7:30 PM66 °FScattered clouds.9 mph64%29.71 "HgN/A
7:00 PM68 °FScattered clouds.9 mph60%29.71 "HgN/A
6:30 PM70 °FScattered clouds.12 mph60%29.71 "HgN/A
6:00 PM70 °FPassing clouds.12 mph60%29.68 "HgN/A
5:30 PM72 °FPassing clouds.14 mph53%29.68 "HgN/A
5:00 PM73 °FPassing clouds.12 mph50%29.68 "HgN/A
4:30 PM72 °FPassing clouds.5 mph61%29.68 "HgN/A
4:00 PM73 °FPassing clouds.13 mph61%29.71 "HgN/A
3:30 PM75 °FPassing clouds.5 mph39%29.68 "HgN/A
3:00 PM75 °FPassing clouds.10 mph44%29.68 "HgN/A
2:30 PM77 °FPassing clouds.9 mph39%29.68 "HgN/A
2:00 PM79 °FPassing clouds.9 mph21%29.68 "HgN/A
1:30 PM79 °FPassing clouds.9 mph23%29.68 "HgN/A
1:00 PM77 °FPassing clouds.13 mph24%29.68 "HgN/A
Weather by CustomWeather, © 2014

See weather overview